Date String (YYYY-MM-DD hh:mm:ss) UTC,Instrument flags,Ambient pressure (hPa),Sample flow (lpm),Bypass flow (lpm),Sample temperature (°C),Ambient temperature (°C),ASC tube jacket temperature (°C),LED temperature (°C),Box temperature (°C),Sample RH (%),Span deviation,Mass concentration (μg/m³),Mass concentration (μg/m³),Mass concentration (μg/m³)
DateTimeUTC,F1_M11,P_M11,Q1_M11,Q2_M11,T1_M11,T2_M11,T3_M11,T4_M11,T5_M11,U1_M11,ZSPAN_M11,X0_M11,X2_M11,X1_M11
2021-10-14 12:00:00,,0822.4,5.01,0.00,23.6,22.6,00.0,32.7,25.4,15.6,0000.0,0010.93,0003.62,0002.56
2021-10-14 12:01:00,,0822.4,4.99,0.00,23.6,22.6,00.0,32.7,25.4,15.6,0000.0,0012.23,0003.70,0002.59
2021-10-14 12:02:00,,0822.5,5.01,0.00,23.6,22.6,00.0,32.7,25.4,15.6,0000.0,0012.64,0003.74,0002.62
2021-10-14 12:03:00,,0822.5,5.00,0.00,23.6,22.6,00.0,32.7,25.4,15.6,0000.0,0012.69,0003.78,0002.67
2021-10-14 12:04:00,,0822.6,4.99,0.00,23.6,22.6,00.0,32.7,25.4,15.7,0000.0,0013.05,0003.83,0002.71
2021-10-14 12:05:00,,0822.6,5.01,0.00,23.6,22.6,00.0,32.7,25.4,15.7,0000.0,0013.26,0003.87,0002.73
2021-10-14 12:06:00,,0822.6,4.99,0.00,23.6,22.6,00.0,32.7,25.4,15.7,0000.0,0013.92,0003.93,0002.77
2021-10-14 12:07:00,,0822.6,5.00,0.00,23.6,22.6,00.0,32.7,25.4,15.6,0000.0,0013.95,0003.98,0002.79
2021-10-14 12:08:00,,0822.6,5.00,0.00,23.6,22.6,00.0,32.7,25.3,15.5,0000.0,0014.13,0004.04,0002.82
2021-10-14 12:09:00,,0822.6,5.00,0.00,23.6,22.6,00.0,32.7,25.4,15.4,0000.0,0014.32,0004.12,0002.83
2021-10-14 12:10:00,,0822.6,5.00,0.00,23.5,22.5,00.0,32.7,25.3,15.3,0000.0,0013.77,0004.08,0002.83
2021-10-14 12:11:00,,0822.6,4.98,0.00,23.5,22.5,00.0,32.7,25.3,15.3,0000.0,0014.29,0004.11,0002.81
2021-10-14 12:12:00,,0822.6,5.00,0.00,23.5,22.5,00.0,32.7,25.3,15.3,0000.0,0013.41,0004.08,0002.82
2021-10-14 12:13:00,,0822.6,5.00,0.00,23.5,22.5,00.0,32.7,25.3,15.4,0000.0,0013.18,0004.07,0002.80
2021-10-14 12:14:00,,0822.6,5.00,0.00,23.5,22.5,00.0,32.7,25.3,15.5,0000.0,0013.46,0004.08,0002.79
2021-10-14 12:15:00,,0822.6,4.99,0.00,23.5,22.5,00.0,32.7,25.3,15.5,0000.0,0013.79,0004.09,0002.78
2021-10-14 12:16:00,,0822.6,5.01,0.00,23.5,22.5,00.0,32.7,25.3,15.5,0000.0,0014.02,0004.09,0002.78
2021-10-14 12:17:00,,0822.6,5.01,0.00,23.5,22.5,00.0,32.7,25.3,15.6,0000.0,0013.78,0004.01,0002.76
2021-10-14 12:18:00,,0822.6,5.00,0.00,23.5,22.5,00.0,32.6,25.3,15.6,0000.0,0014.28,0003.96,0002.77
2021-10-14 12:19:00,,0822.6,5.01,0.00,23.5,22.5,00.0,32.6,25.3,15.6,0000.0,0014.19,0003.90,0002.77
2021-10-14 12:20:00,,0822.6,5.00,0.00,23.5,22.5,00.0,32.6,25.2,15.6,0000.0,0014.69,0003.86,0002.76
2021-10-14 12:21:00,,0822.6,5.00,0.00,23.5,22.5,00.0,32.6,25.2,15.6,0000.0,0014.56,0003.90,0002.76
2021-10-14 12:22:00,,0822.6,5.01,0.00,23.5,22.5,00.0,32.6,25.2,15.7,0000.0,0013.61,0003.82,0002.77
2021-10-14 12:23:00,,0822.6,5.00,0.00,23.5,22.5,00.0,32.6,25.2,15.7,0000.0,0013.24,0003.80,0002.77
2021-10-14 12:24:00,,0822.6,4.99,0.00,23.5,22.5,00.0,32.6,25.2,15.8,0000.0,0012.79,0003.81,0002.79
2021-10-14 12:25:00,,0822.6,5.00,0.00,23.5,22.5,00.0,32.6,25.2,15.8,0000.0,0012.82,0003.81,0002.79
2021-10-14 12:26:00,,0822.6,5.00,0.00,23.5,22.5,00.0,32.6,25.2,15.9,0000.0,0012.90,0003.81,0002.78
2021-10-14 12:27:00,,0822.6,4.99,0.00,23.4,22.4,00.0,32.6,25.2,15.9,0000.0,0013.70,0003.86,0002.79
2021-10-14 12:28:00,,0822.6,5.01,0.00,23.4,22.4,00.0,32.6,25.2,16.0,0000.0,0013.79,0003.94,0002.79
2021-10-14 12:29:00,,0822.6,5.00,0.00,23.4,22.4,00.0,32.6,25.2,16.1,0000.0,0013.48,0003.99,0002.81
2021-10-14 12:30:00,,0822.6,5.00,0.00,23.4,22.4,00.0,32.6,25.2,16.2,0000.0,0013.19,0004.04,0002.83
2021-10-14 12:31:00,,0822.6,4.99,0.00,23.4,22.4,00.0,32.6,25.2,16.3,0000.0,0012.83,0004.08,0002.87
2021-10-14 12:32:00,,0822.6,4.99,0.00,23.4,22.4,00.0,32.6,25.2,16.4,0000.0,0012.52,0004.10,0002.93
2021-10-14 12:33:00,,0822.6,5.00,0.00,23.4,22.4,00.0,32.6,25.2,16.5,0000.0,0012.38,0004.13,0003.00
2021-10-14 12:34:00,,0822.6,5.02,0.00,23.4,22.4,00.0,32.6,25.2,16.5,0000.0,0012.59,0004.17,0003.06
2021-10-14 12:35:00,,0822.6,4.99,0.00,23.4,22.4,00.0,32.6,25.2,16.6,0000.0,0012.64,0004.17,0003.12
2021-10-14 12:36:00,,0822.7,5.00,0.00,23.4,22.4,00.0,32.5,25.2,16.6,0000.0,0013.07,0004.19,0003.16
2021-10-14 12:37:00,,0822.7,4.99,0.00,23.4,22.4,00.0,32.5,25.2,16.7,0000.0,0013.28,0004.21,0003.21
2021-10-14 12:38:00,,0822.7,5.01,0.00,23.4,22.4,00.0,32.5,25.2,16.7,0000.0,0012.48,0004.21,0003.25
2021-10-14 12:39:00,,0822.7,4.99,0.00,23.4,22.4,00.0,32.5,25.2,16.7,0000.0,0011.47,0004.20,0003.30
2021-10-14 12:40:00,,0822.7,5.01,0.00,23.4,22.4,00.0,32.5,25.2,16.8,0000.0,0011.02,0004.15,0003.33
2021-10-14 12:41:00,,0822.7,4.99,0.00,23.4,22.4,00.0,32.5,25.2,16.8,0000.0,0010.36,0004.12,0003.37
2021-10-14 12:42:00,,0822.7,4.99,0.00,23.4,22.5,00.0,32.5,25.2,16.8,0000.0,0010.06,0004.13,0003.41
2021-10-14 12:43:00,,0822.7,5.01,0.00,23.4,22.5,00.0,32.5,25.2,16.8,0000.0,0009.64,0004.13,0003.43
2021-10-14 12:44:00,,0822.7,4.99,0.00,23.4,22.5,00.0,32.5,25.2,16.8,0000.0,0009.84,0004.13,0003.43
2021-10-14 12:45:00,,0822.7,5.01,0.00,23.4,22.5,00.0,32.5,25.2,16.8,0000.0,0009.92,0004.16,0003.44
2021-10-14 12:46:00,,0822.8,4.99,0.00,23.4,22.5,00.0,32.5,25.2,16.8,0000.0,0009.86,0004.18,0003.44
2021-10-14 12:47:00,,0822.8,5.00,0.00,23.4,22.4,00.0,32.5,25.2,16.7,0000.0,0009.61,0004.22,0003.45
2021-10-14 12:48:00,,0822.8,5.01,0.00,23.4,22.4,00.0,32.5,25.2,16.6,0000.0,0008.71,0004.26,0003.43
2021-10-14 12:49:00,,0822.8,4.98,0.00,23.4,22.4,00.0,32.5,25.2,16.6,0000.0,0008.86,0004.27,0003.41
2021-10-14 12:50:00,,0822.9,5.00,0.00,23.4,22.4,00.0,32.5,25.2,16.5,0000.0,0010.19,0004.30,0003.39
2021-10-14 12:51:00,,0822.9,5.01,0.00,23.4,22.4,00.0,32.5,25.2,16.5,0000.0,0011.29,0004.38,0003.39
2021-10-14 12:52:00,,0823.0,5.00,0.00,23.4,22.4,00.0,32.5,25.1,16.4,0000.0,0011.74,0004.44,0003.37
2021-10-14 12:53:00,,0823.0,5.00,0.00,23.4,22.4,00.0,32.5,25.1,16.4,0000.0,0012.14,0004.48,0003.35
2021-10-14 12:54:00,,0822.9,5.00,0.00,23.4,22.4,00.0,32.5,25.2,16.4,0000.0,0012.56,0004.53,0003.33
2021-10-14 12:55:00,,0823.0,5.02,0.00,23.4,22.4,00.0,32.5,25.2,16.3,0000.0,0012.62,0004.55,0003.31
2021-10-14 12:56:00,,0822.9,4.99,0.00,23.4,22.4,00.0,32.5,25.2,16.3,0000.0,0013.62,0004.65,0003.30
2021-10-14 12:57:00,,0822.9,5.01,0.00,23.4,22.4,00.0,32.5,25.1,16.2,0000.0,0014.37,0004.75,0003.30
2021-10-14 12:58:00,,0822.9,4.99,0.00,23.4,22.4,00.0,32.5,25.1,16.2,0000.0,0015.12,0004.81,0003.29
2021-10-14 12:59:00,,0823.0,5.01,0.00,23.4,22.4,00.0,32.5,25.1,16.2,0000.0,0016.62,0004.92,0003.29
